Location: Ponte Samoggia
(44.5667°N, 11.1333°E)
Time: 15:54:36
(UTC+00:00)

SME Rocket - Pass Details

Date: 26 May 2022
Orbit: 551 x 2650 km, 99.9° (Epoch: 06 July)

Event Time Altitude Azimuth Distance (km) Brightness Sun altitude
Exits shadow 01:24:29 30° 249° (WSW) 1,114 3.9 -17.7°
Maximum altitude 01:25:02 31° 265° (W) 1,107 4.0 -17.7°
Drops below altitude 10° 01:29:16 10° 328° (NNW) 2,304 6.3 -17.3°
Sets 01:32:11 0° 338° (NNW) 3,494 7.4 -17.0°
